Zurück zum Katalog

XM-2

AktivKommunikationGEO
NORAD 26724·PAYLOAD·🇺🇸 United States

Gestartet Mar 18, 2001 von Sea Launch Platform

Loading…

TLE

AktuellSource: Space-Track

Epoche: Sep 14, 2026, 12:26 UTC

1 26724U 01012A   26257.51862867  .00000046  00000-0  00000-0 0  9990
2 26724   9.7922  55.5754 0009351 128.0736  71.2907  0.99079240 43124

Verfolge XM-2 in Echtzeit mit AllMySat

Download on the App Store